Showing default

SENTINEL-1D, 66315

Orbit data source: Space-Track

SENTINEL-1D, 66315 is an ESA payload satellite in SSO that was launched on Tue, 04 Nov 2025 UTC via an ARIANE 62 launch vehicle from the French Guiana (FRGUI). Payload-class satellites include a variety of spacecraft equipped with specific instruments for various scientific and technological missions. These include communications satellites like Starlink; space stations such as the ISS; scientific satellites like the Hubble; Earth observation satellites from companies like Planet Labs, Umbra, and HawkEye 360; GPS; miniature CubeSats for education and research; and military/defense satellites.

Loading next visibility...
Identifier
66315, 2025-251A
Orbit
SSO
Country
Flag of ESAESA
Related business
Manufacturer
Thales Alenia
Mission
Operational Civil Radar Imaging
Bus & Motor
PRIMA, AOCS
Mass
2,157 kg wet, 2,027 kg dry
Launch date (UTC)
2025-11-04 (8 months ago)
Launch vehicle
ARIANE 62
Launch site
French Guiana (FRGUI)
Object type
Payload
Rocket body
Debris
Shape & HBR
Box + 4 Pan, 10.5 m
Radar Cross Section
19.678 m², Large (>1 m²)

Expand to show TLE details & history
Last TLE update: 21 hours ago

TLE from 21 hours ago
0 SENTINEL-1D
1 66315U 25251A   26170.97844246  .00000106  00000-0  32101-4 0  9994
2 66315  98.1826 178.2989 0001369  88.7599 271.3758 14.59197060 33131
Epoch: 2026-06-19T23:28Z
TLE epoch observation values (Epoch: 2026-06-19T23:28:57.428Z)
Latitude
0.00002°
Longitude
-82.14005°
Altitude
698.729 km
Speed
7.507 km/s
True Right ascension
11h 53m 11s
True Declination
0° 00' 00"
Sunlit
Object was in daylight at epoch
Visualization orbit readout
Latitude
Unknown
Longitude
Unknown
Altitude
Unknown
Speed
Unknown
Apparent Right ascension
Unknown
Apparent Declination
Unknown
Sunlit
N/A
Visualization observer readout
Local Sidereal Time
07:18:18
Azimuth
Unknown
Elevation
Unknown
Doppler factor
Unknown
Orbital elements
Apogee altitude
693.817 km
Perigee altitude
691.881 km
Semi-major axis
7,070.986 km
Eccentricity
0.00014
Inclination
98.1826°
RAAN
178.2989°
Arg. of periapsis
88.7599°
True anomaly
271.36012°
Mean anomaly
271.3758°
Eccentric anomaly
271.36796°
Mean motion
3.65025 °/min
Orbital period
98.62 mins
BSTAR
0.000032101
Loading maneuver chart data...
Computing Atmospheric mass density...
Loading historical data...
Loading historical data...
Loading historical data...
Loading historical data...
Loading historical data...
Loading historical data...
Loading historical data...
Other satellites on launch #251 in the year 2025 (2025-11-04 UTC)

Documentation

Showing up to 5 results
|